Regional Weather Roundup
Issued by NWS Sioux Falls, SD

Home | Current Version | Previous Version | Graphics & Text | Print | Product List | Glossary Off
Versions: 1 2 3 4 5 6 7 8 9 10 11 12 13 14 15 16 17 18 19 20 21 22 23 24 25 26 27 28 29 30 31 32 33 34 35 36 37 38 39 40 41 42 43 44 45 46 47 48 49 50

000
ASUS43 KFSD 311610
RWRFSD

WEATHER ROUNDUP FOR SE SOUTH DAKOTA/SW MINNESOTA/NW IOWA
NATIONAL WEATHER SERVICE SIOUX FALLS SD
1000 AM CST SAT JAN 31 2015

NOTE: "FAIR" INDICATES FEW OR NO CLOUDS BELOW 12,000 FEET WITH NO
SIGNIFICANT WEATHER AND OR OBSTRUCTIONS TO VISIBILITY.


SDZ038>040-050-052>070-311700-
SOUTHEAST SOUTH DAKOTA

CITY           SKY/WX    TMP DP  RH WIND       PRES   REMARKS
CHAMBERLAIN    FOG       25  24  97 NE14G20   30.11S VSB 1/2 WCI  13
HURON          CLOUDY    24  20  84 NE17      30.18S WCI  11
MADISON        FOG       23  23 100 E18       30.14R VSB 3/4 WCI   9
MITCHELL       CLOUDY    27  25  92 NE17      30.15S FOG     WCI  14
SIOUX FALLS    CLOUDY    26  24  92 NE17      30.14S FOG     WCI  13
WINNER         FOG       26  24  92 NE15      30.09R VSB 1/4 WCI  14
YANKTON        CLOUDY    30  27  86 NE12      30.11R WCI  21
$$

MNZ071-072-080-081-089-090-097-098-311700-
SOUTHWEST MINNESOTA

CITY           SKY/WX    TMP DP  RH WIND       PRES   REMARKS
FAIRMONT       CLOUDY    25  21  86 N10       30.15S WCI  15
JACKSON        CLOUDY    27  25  93 N9        30.15S WCI  17
LUVERNE        CLOUDY    28  27  93 NE14      30.14S FOG     WCI  17
MARSHALL       CLOUDY    23  19  86 NE13      30.21S WCI  11
MONTEVIDEO     CLOUDY    25  21  86 NE8       30.24R WCI  16
PIPESTONE      FOG       21  21 100 E7        30.14S VSB 1/4 WCI  13
REDWOOD FALLS  CLOUDY    25  23  92 N6        30.20R FOG     WCI  18
TRACY          CLOUDY    25  24  96 N8        30.17F FOG     WCI  16
WINDOM         CLOUDY    25  25 100 N9        30.16F FOG     WCI  15
WORTHINGTON    CLOUDY    25  21  86 NE14      30.16R WCI  13
$$

IAZ001>003-012>014-020>022-031-032-NEZ013-014-SDZ071-311700-
NORTHWEST IOWA

CITY           SKY/WX    TMP DP  RH WIND       PRES   REMARKS
CHEROKEE       CLOUDY    32  32 100 NE5       30.13S WCI  27
DENISON        FOG       36  36 100 S10G16    30.12S VSB 3/4
ESTHERVILLE    CLOUDY    25  23  92 N12       30.15S FOG     WCI  14
LE MARS        CLOUDY    36  34  93 S3        30.12S
ORANGE CITY    CLOUDY    30  27  86 E7        30.11F WCI  23
SHELDON        CLOUDY    27  27 100 NE14G20   30.12F FOG     WCI  15
SIOUX CITY     CLOUDY    36  33  89 SE6       30.12S
SPENCER        CLOUDY    28  24  85 N12       30.15S WCI  18
STORM LAKE     CLOUDY    36  34  93 SW7       30.13S
$$

ABBREVIATIONS USED IN REMARKS
   TC - TEMPERATURE IN CELSIUS
  WCI - WIND CHILL INDEX
   HX - HEAT INDEX
  VSB - VISIBILITY




USA.gov is the U.S. government's official web portal to all federal, state and local government web resources and services.